Capitol Logistics 1142


LGTS
Makedonia Airport
Thessaloniki, GR
EBLG
Liège Airport
Liege, BE

Activity Log

Date Flight Route Aircraft Duration
11/11/2019 CPX742 Not Available B738 2h 41m
11/10/2019 CPX742 N0374F240 TSL B5 FSK UL608 DISOR L608 LONTA/N0447F400 UL608 DOLEV ERKIR ETAGO SUNEG L608 NONKO UZ211 MISGI Z104 ROBON UZ104 GESLO GESL4D B738 2h 52m
11/09/2019 CPX742 Not Available B738 2h 35m

Route Details

Aircraft Information
Primary: Boeing 737-800BCF
Backup: Not Available
Route Data
Distance: 952nm
Sched. Duration: 2h 50m
Avg. Duration: 2h 43m (-7m)
Times Flown: 3
Recm'd Route: Not Available
Planned Altitude: 38,000ft
Origin Wx: LGTS 290320Z 35006KT 9999 FEW030 16/08 Q1015 NOSIG
Dest. Wx: EBLG 290320Z 06005KT 020V130 CAVOK 09/04 Q1029 NOSIG
Notes:

Financial History
Total Freight: 110,353lbs
Average Load: 36,784lbs/flt
Fuel Used: 41,416lbs
Avg. Fuel Used: 13,805lbs/flt
Fuel Expense: $37,689
Avg. Fuel Expense: $12,563
Avg. Fuel Cost: $0.91/lbs
Total Gross Income: $228,837
Pilot Pay: $707
Total Expenses: $24,870
Total Revenue: $164,304
Average Revenue: $76,279.07